Ингичка

Uzbekistan     39˚52′01″N   67˚19′58″E
temp.,
°C
wind,
m/s
gust,
m/s
humid.,
%
clouds,
%
prec.,
mm/h
press.,
hPa
HPBL,
m
3 december, thu
thu323:00+5˚nw115665 0.0 102622
02:00+5˚wsw115686 0.0 102622
05:00+4˚w116192 0.0 102722
08:00+3˚wnw016523 0.0 102822
11:00+7˚wnw115452 0.0 1027222
14:00+8˚wnw2352100 0.0 1026437
17:00+6˚n1263100 0.0 102623
20:00+4˚ene3371100 0.0 102764
4 december, fri
fri423:00+2˚ene3373100 0.0 102755
02:00+2˚ene2276100 0.0 102737
05:00+1˚ene2275100 0.0 102833
08:00+1˚ne127299 0.0 102929
11:00+4˚wnw235787 0.0 1029330
14:00+7˚wnw463536 0.0 1028756
17:00+4˚wnw233718 0.0 102899
20:00+2˚nnw234216 0.0 103078
5 december, sat
sat523:00nw12428 0.0 103028
02:00−1˚wnw22390 0.0 102932
05:00−1˚nw12390 0.0 102922
08:00−1˚nnw114043 0.0 102922
11:00+3˚w223531 0.0 1028285
14:00+5˚wnw333420 0.0 1026586
17:00+3˚nnw223929 0.0 102630
20:00−1˚ne4564100 0.0 1028112
6 december, sun
sun623:00−1˚ene346398 0.0 102878
02:00−1˚ne236331 0.0 102846
05:00ne226515 0.0 102825
08:00ene23671 0.0 102827
11:00+5˚ene11531 0.0 1027233
14:00+7˚nne21490 0.0 1025543
17:00+5˚ne345922 0.0 102469
20:00+2˚ne3569100 0.0 1025117
7 december, mon
mon723:00+1˚ene4569100 0.0 1024119
02:00+1˚ene3368100 0.0 102381
05:00+2˚ne2367100 0.0 102363
08:00+2˚e0187100 0.7 102592
11:00+2˚ssw2397100 2.0 1026147
14:00+1˚w3497100 2.2 1026176
17:00+1˚wnw3597100 3.4 1027201
20:00+1˚nw2393100 0.1 1029155